| time (UTC) | temp F | wind direction | speed MPH | gust MPH | rain 1hr in | rain 24hr in | rain mn in | humidity % | barometer mb |
| 20260508080023 | 49 | 250 | 0.0 | 2.0 | 0.00 | 0.00 | 0.00 | 84 | 1017.6 |
| 20260508074514 | 52 | 12 | 0.0 | 2.0 | 0.00 | 0.00 | 0.00 | 79 | 1017.5 |
| 20260508073018 | 51 | 348 | 0.0 | 2.0 | 0.00 | 0.00 | 0.00 | 82 | 1017.5 |
| 20260508071521 | 52 | 355 | 0.0 | 0.0 | 0.00 | 0.00 | 0.00 | 81 | 1017.5 |
| 20260508070010 | 54 | 318 | 0.0 | 0.0 | 0.00 | 0.00 | 0.00 | 78 | 1017.4 |
| 20260508064511 | 53 | 350 | 0.0 | 0.0 | 0.00 | 0.00 | 0.00 | 79 | 1017.4 |
| 20260508063009 | 54 | 306 | 0.0 | 0.0 | 0.00 | 0.00 | 0.00 | 79 | 1017.3 |
| 20260508061515 | 55 | 269 | 0.0 | 0.0 | 0.00 | 0.00 | 0.00 | 77 | 1017.2 |
| 20260508060012 | 55 | 269 | 0.0 | 0.0 | 0.00 | 0.00 | 0.00 | 74 | 1017.0 |
| 20260508054507 | 56 | 60 | 0.0 | 0.0 | 0.00 | 0.00 | 0.00 | 76 | 1016.8 |
| 20260508053017 | 56 | 19 | 0.0 | 2.0 | 0.00 | 0.00 | 0.00 | 76 | 1016.7 |
| 20260508051506 | 57 | 346 | 1.0 | 2.0 | 0.00 | 0.00 | 0.00 | 74 | 1016.7 |
| 20260508050017 | 58 | 19 | 0.0 | 0.0 | 0.00 | 0.00 | 0.00 | 71 | 1016.4 |
| 20260508044505 | 60 | 324 | 0.0 | 0.0 | 0.00 | 0.00 | 0.00 | 70 | 1016.3 |
| 20260508043006 | 62 | 319 | 0.0 | 2.0 | 0.00 | 0.00 | 0.00 | 64 | 1016.0 |
| 20260508041504 | 65 | 355 | 2.0 | 3.0 | 0.00 | 0.00 | 0.00 | 57 | 1015.7 |
| 20260508040005 | 66 | 23 | 1.0 | 3.0 | 0.00 | 0.00 | 0.00 | 55 | 1015.4 |
| 20260508034503 | 67 | 344 | 2.0 | 5.0 | 0.00 | 0.00 | 0.00 | 54 | 1015.1 |
| 20260508033002 | 69 | 9 | 2.0 | 9.0 | 0.00 | 0.00 | 0.00 | 51 | 1014.7 |
| 20260508031502 | 69 | 344 | 1.0 | 3.0 | 0.00 | 0.00 | 0.00 | 53 | 1014.5 |
| 20260508030001 | 71 | 59 | 2.0 | 4.0 | 0.00 | 0.00 | 0.00 | 51 | 1014.4 |
| 20260508024505 | 75 | 33 | 0.0 | 3.0 | 0.00 | 0.00 | 0.00 | 45 | 1014.2 |
| 20260508023100 | 77 | 12 | 1.0 | 6.0 | 0.00 | 0.00 | 0.00 | 44 | 1014.1 |
| 20260508021600 | 78 | 332 | 5.0 | 10.0 | 0.00 | 0.00 | 0.00 | 41 | 1014.0 |
| 20260508020059 | 80 | 338 | 3.0 | 8.0 | 0.00 | 0.00 | 0.00 | 40 | 1013.9 |
| 20260508014659 | 80 | 5 | 3.0 | 8.0 | 0.00 | 0.00 | 0.00 | 39 | 1013.9 |
| 20260508013058 | 81 | 10 | 3.0 | 8.0 | 0.00 | 0.00 | 0.00 | 36 | 1013.9 |
| 20260508011557 | 82 | 262 | 1.0 | 4.0 | 0.00 | 0.00 | 0.00 | 35 | 1014.0 |
| 20260508010055 | 82 | 275 | 3.0 | 8.0 | 0.00 | 0.00 | 0.00 | 34 | 1014.1 |
| 20260508004555 | 83 | 261 | 4.0 | 10.0 | 0.00 | 0.00 | 0.00 | 30 | 1014.1 |
| 20260508003105 | 83 | 242 | 7.0 | 11.0 | 0.00 | 0.00 | 0.00 | 29 | 1014.2 |
| 20260508001558 | 83 | 237 | 8.0 | 15.0 | 0.00 | 0.00 | 0.00 | 30 | 1014.2 |
| 20260508000052 | 83 | 271 | 6.0 | 18.0 | 0.00 | 0.00 | 0.00 | 27 | 1014.2 |
| 20260507234551 | 83 | 285 | 7.0 | 12.0 | 0.00 | 0.00 | 0.00 | 29 | 1014.3 |
| 20260507233050 | 84 | 244 | 8.0 | 15.0 | 0.00 | 0.00 | 0.00 | 29 | 1014.3 |
| 20260507231548 | 84 | 292 | 8.0 | 15.0 | 0.00 | 0.00 | 0.00 | 26 | 1014.5 |
| 20260507230046 | 84 | 313 | 6.0 | 10.0 | 0.00 | 0.00 | 0.00 | 28 | 1014.6 |
| 20260507224600 | 84 | 202 | 4.0 | 10.0 | 0.00 | 0.00 | 0.00 | 33 | 1014.8 |
| 20260507223051 | 83 | 245 | 3.0 | 6.0 | 0.00 | 0.00 | 0.00 | 30 | 1015.0 |
| 20260507221538 | 83 | 225 | 1.0 | 4.0 | 0.00 | 0.00 | 0.00 | 34 | 1015.2 |
| 20260507220037 | 82 | 65 | 2.0 | 5.0 | 0.00 | 0.00 | 0.00 | 32 | 1015.5 |
| 20260507214535 | 82 | 171 | 1.0 | 7.0 | 0.00 | 0.00 | 0.00 | 35 | 1015.8 |
| 20260507213032 | 82 | 334 | 2.0 | 5.0 | 0.00 | 0.00 | 0.00 | 36 | 1016.0 |
| 20260507211529 | 80 | 111 | 1.0 | 6.0 | 0.00 | 0.00 | 0.00 | 33 | 1016.1 |
| 20260507210031 | 80 | 138 | 1.0 | 5.0 | 0.00 | 0.00 | 0.00 | 35 | 1016.3 |
| 20260507204526 | 79 | 96 | 1.0 | 6.0 | 0.00 | 0.00 | 0.00 | 36 | 1016.5 |
| 20260507203023 | 80 | 149 | 2.0 | 6.0 | 0.00 | 0.00 | 0.00 | 40 | 1016.6 |
| 20260507201523 | 78 | 240 | 2.0 | 7.0 | 0.00 | 0.00 | 0.00 | 36 | 1016.7 |
| 20260507200018 | 78 | 296 | 3.0 | 7.0 | 0.00 | 0.00 | 0.00 | 43 | 1016.9 |
| 20260507194516 | 77 | 149 | 2.0 | 5.0 | 0.00 | 0.00 | 0.00 | 40 | 1017.2 |
| 20260507193012 | 76 | 234 | 1.0 | 5.0 | 0.00 | 0.00 | 0.00 | 46 | 1017.4 |
| 20260507191511 | 76 | 188 | 1.0 | 4.0 | 0.00 | 0.00 | 0.00 | 46 | 1017.7 |
| 20260507190006 | 74 | 207 | 0.0 | 4.0 | 0.00 | 0.00 | 0.00 | 48 | 1017.9 |
| 20260507184505 | 73 | 240 | 1.0 | 4.0 | 0.00 | 0.00 | 0.00 | 48 | 1018.1 |
| 20260507183059 | 71 | 202 | 1.0 | 4.0 | 0.00 | 0.00 | 0.00 | 50 | 1018.3 |
| 20260507181554 | 71 | 259 | 0.0 | 3.0 | 0.00 | 0.00 | 0.00 | 51 | 1018.4 |
| 20260507180051 | 69 | 242 | 2.0 | 4.0 | 0.00 | 0.00 | 0.00 | 54 | 1018.5 |
| 20260507174550 | 67 | 244 | 1.0 | 5.0 | 0.00 | 0.00 | 0.00 | 56 | 1018.7 |
| 20260507173044 | 69 | 225 | 1.0 | 3.0 | 0.00 | 0.00 | 0.00 | 55 | 1018.7 |
| 20260507171541 | 67 | 126 | 1.0 | 3.0 | 0.00 | 0.00 | 0.00 | 59 | 1018.9 |
| 20260507170037 | 64 | 251 | 2.0 | 4.0 | 0.00 | 0.00 | 0.00 | 63 | 1019.0 |
| 20260507164534 | 64 | 273 | 1.0 | 4.0 | 0.00 | 0.00 | 0.00 | 61 | 1019.1 |
| 20260507163030 | 63 | 244 | 1.0 | 3.0 | 0.00 | 0.00 | 0.00 | 67 | 1019.2 |
| 20260507161527 | 62 | 138 | 0.0 | 2.0 | 0.00 | 0.00 | 0.00 | 68 | 1019.4 |
| 20260507160027 | 60 | 107 | 1.0 | 2.0 | 0.00 | 0.00 | 0.00 | 70 | 1019.5 |
| 20260507154520 | 59 | 30 | 0.0 | 2.0 | 0.00 | 0.00 | 0.00 | 72 | 1019.6 |
| 20260507153016 | 56 | 257 | 0.0 | 0.0 | 0.00 | 0.00 | 0.00 | 76 | 1019.7 |
| 20260507151513 | 56 | 315 | 0.0 | 0.0 | 0.00 | 0.00 | 0.00 | 77 | 1019.8 |
| 20260507150012 | 54 | 360 | 0.0 | 0.0 | 0.00 | 0.00 | 0.00 | 84 | 1019.9 |
| 20260507144505 | 51 | 45 | 0.0 | 0.0 | 0.00 | 0.00 | 0.00 | 87 | 1020.0 |
| 20260507143003 | 50 | 53 | 0.0 | 0.0 | 0.00 | 0.00 | 0.00 | 90 | 1019.9 |
| 20260507141600 | 48 | 53 | 0.0 | 0.0 | 0.00 | 0.00 | 0.00 | 92 | 1019.8 |
| 20260507140108 | 46 | 53 | 0.0 | 0.0 | 0.00 | 0.00 | 0.00 | 94 | 1019.7 |
| 20260507134552 | 43 | 53 | 0.0 | 0.0 | 0.00 | 0.00 | 0.00 | 94 | 1019.6 |
| 20260507133048 | 41 | 53 | 0.0 | 0.0 | 0.00 | 0.00 | 0.00 | 92 | 1019.4 |
| 20260507131548 | 42 | 53 | 0.0 | 0.0 | 0.00 | 0.00 | 0.00 | 94 | 1019.3 |
| 20260507130043 | 40 | 89 | 0.0 | 2.0 | 0.00 | 0.00 | 0.00 | 91 | 1019.3 |
| 20260507124541 | 42 | 120 | 0.0 | 1.0 | 0.00 | 0.00 | 0.00 | 94 | 1019.2 |
| 20260507123040 | 41 | 348 | 0.0 | 2.0 | 0.00 | 0.00 | 0.00 | 92 | 1019.1 |
| 20260507121538 | 41 | 355 | 0.0 | 2.0 | 0.00 | 0.00 | 0.00 | 91 | 1019.2 |
| 20260507120036 | 42 | 335 | 1.0 | 2.0 | 0.00 | 0.00 | 0.00 | 91 | 1019.3 |
| 20260507114536 | 44 | 346 | 0.0 | 0.0 | 0.00 | 0.00 | 0.00 | 89 | 1019.3 |
| 20260507113039 | 44 | 313 | 0.0 | 0.0 | 0.00 | 0.00 | 0.00 | 92 | 1019.4 |
| 20260507111536 | 43 | 300 | 0.0 | 0.0 | 0.00 | 0.00 | 0.00 | 91 | 1019.3 |
| 20260507110032 | 42 | 300 | 0.0 | 2.0 | 0.00 | 0.00 | 0.00 | 92 | 1019.4 |
| 20260507104533 | 43 | 328 | 0.0 | 2.0 | 0.00 | 0.00 | 0.00 | 92 | 1019.3 |
| 20260507103026 | 43 | 312 | 0.0 | 2.0 | 0.00 | 0.00 | 0.00 | 91 | 1019.3 |
| 20260507101536 | 44 | 33 | 0.0 | 2.0 | 0.00 | 0.00 | 0.00 | 90 | 1019.4 |
| 20260507100030 | 44 | 5 | 0.0 | 1.0 | 0.00 | 0.00 | 0.00 | 89 | 1019.4 |
| 20260507094521 | 45 | 55 | 0.0 | 0.0 | 0.00 | 0.00 | 0.00 | 91 | 1019.4 |
| 20260507093025 | 45 | 327 | 0.0 | 0.0 | 0.00 | 0.00 | 0.00 | 89 | 1019.4 |
| 20260507091617 | 45 | 304 | 0.0 | 0.0 | 0.00 | 0.00 | 0.00 | 89 | 1019.3 |
| 20260507090013 | 46 | 59 | 0.0 | 0.0 | 0.00 | 0.00 | 0.00 | 86 | 1019.3 |
| 20260507084513 | 48 | 40 | 0.0 | 0.0 | 0.00 | 0.00 | 0.00 | 89 | 1019.5 |
| 20260507083015 | 47 | 31 | 0.0 | 0.0 | 0.00 | 0.00 | 0.00 | 86 | 1019.4 |
| 20260507081509 | 47 | 31 | 0.0 | 0.0 | 0.00 | 0.00 | 0.00 | 86 | 1019.4 |